Helicity
47 49 51 52 57 64 74 74 82 86 91 91 91 87 90 87 96 98 89 99 111 102 100 101 135 89 32 39 56 41 60 87 59 31 18 12 29 39 96 71 83 68 34 36 28 44 43
67 64 64 63 58 61 64 73 77 85 91 97 96 105 109 102 104 103 108 95 97 106 85 84 87 63 46 46 31 33 65 70 46 45 32 44 53 30 58 66 75 48 43 34 23 25 21
73 73 73 77 79 76 76 71 75 80 88 100 102 106 114 119 125 117 113 105 90 85 90 63 29 8 44 27 48 16 39 66 71 45 45 33 45 55 54 90 53 64 70 37 31 29 28
84 84 83 84 87 92 89 83 86 88 88 92 110 112 128 131 138 134 130 107 90 62 58 31 18 26 17 26 26 37 46 52 66 53 40 45 29 59 68 79 90 98 75 92 37 63 27
90 94 95 97 97 98 98 100 102 104 102 96 101 116 138 130 143 153 145 129 86 28 38 46 44 41 38 66 45 19 33 32 44 76 74 78 68 90 103 108 113 100 53 95 61 62 87
83 88 92 99 103 106 107 107 107 115 123 120 118 134 151 138 169 156 159 99 22 46 67 52 64 62 41 94 123 55 23 37 52 64 116 101 123 159 157 128 69 45 89 63 70 38 128
75 79 87 97 100 104 111 115 116 120 134 138 143 167 177 167 207 166 74 57 90 71 104 73 67 76 54 125 96 83 62 47 73 75 91 113 144 117 77 74 95 94 95 95 69 39 118
72 83 87 89 106 116 117 119 125 134 144 148 155 181 205 202 204 167 29 77 68 49 62 51 19 12 17 78 90 116 97 86 94 83 108 128 71 44 53 66 76 74 105 67 36 51 79
64 74 86 96 103 111 119 128 135 145 158 162 170 198 225 261 179 55 59 69 55 37 34 61 51 27 25 52 50 65 97 123 124 102 96 104 37 40 15 42 57 75 76 81 53 78 74
73 73 73 81 91 103 109 122 136 144 157 164 175 195 208 342 83 93 75 105 67 4 43 31 67 51 84 82 58 30 85 110 146 75 91 78 29 28 27 28 81 82 66 76 82 109 95
79 81 68 69 76 79 91 105 116 127 140 158 160 179 182 131 89 101 109 140 75 51 99 50 71 71 105 144 68 102 93 125 108 115 143 74 61 58 57 62 81 59 81 86 76 100 96
79 69 63 67 73 75 88 100 110 118 125 153 162 157 165 84 97 79 124 133 96 169 98 99 63 79 121 117 95 87 133 136 85 118 139 69 85 83 79 102 97 98 109 141 123 122 146
88 71 63 61 66 70 86 99 108 115 116 145 160 166 128 69 99 111 138 154 215 175 144 137 153 117 81 72 76 82 123 165 166 196 168 153 130 118 90 126 146 162 136 105 108 133 120
79 77 76 64 59 65 73 85 99 111 115 141 170 162 49 68 79 117 152 236 224 171 219 211 138 97 91 87 65 104 115 148 177 193 161 142 135 110 121 105 86 86 98 129 103 102 95
72 78 73 62 51 57 63 75 90 109 125 143 154 70 69 73 64 91 196 276 215 207 194 220 183 152 124 106 102 106 78 77 94 152 157 131 122 94 102 157 129 98 117 86 139 136 114
68 70 65 62 51 56 68 82 97 117 139 160 93 98 97 105 78 138 224 237 222 170 196 174 212 195 206 185 137 121 107 76 95 90 138 95 116 75 109 143 155 128 112 151 173 152 109
73 67 57 65 68 66 71 89 104 127 153 125 104 146 103 128 109 176 224 202 180 144 125 167 185 249 233 218 164 150 131 93 58 95 158 166 142 100 123 132 136 180 172 189 140 164 129
84 73 62 61 65 70 73 87 104 134 170 109 122 186 123 118 192 179 174 147 163 129 121 142 135 157 202 226 215 171 137 110 82 76 118 120 128 115 89 109 97 113 111 185 182 108 127
97 81 73 64 64 66 72 77 90 117 135 116 160 167 135 113 191 186 158 156 142 122 141 126 130 141 139 160 203 158 159 167 107 -5 55 132 161 176 166 145 125 132 138 160 174 157 128
83 98 79 66 58 60 58 66 80 104 122 112 151 173 196 161 159 135 153 133 142 97 58 97 115 123 122 110 124 177 179 178 185 100 68 61 151 196 159 107 88 123 117 155 161 151 132
114 101 94 74 64 57 53 52 67 95 116 124 193 190 173 162 185 159 147 151 140 147 114 79 88 160 140 101 89 93 76 100 120 143 85 84 139 158 158 134 176 123 163 201 164 152 165
134 131 111 88 78 69 58 56 59 80 96 149 184 190 190 160 174 174 167 158 173 200 155 187 162 168 143 117 156 201 200 97 90 174 142 152 141 129 141 132 128 150 133 135 163 179 121
145 145 127 105 87 82 65 62 60 75 108 144 154 164 160 189 175 170 173 196 205 179 148 127 133 131 143 147 223 236 144 134 117 104 132 158 167 160 142 157 167 167 123 133 159 176 157
131 140 151 133 108 93 83 67 63 66 92 110 128 144 163 171 160 171 179 176 173 151 154 182 153 114 144 192 181 125 116 95 85 105 72 141 205 203 133 203 177 124 129 155 142 118 134
129 136 125 144 124 103 100 75 72 70 74 103 108 138 147 174 171 174 170 162 145 138 110 109 108 94 126 121 115 160 160 108 76 91 98 93 135 186 172 158 141 123 87 112 151 67 146
77 137 141 137 117 110 108 91 76 63 69 97 95 97 116 127 131 134 138 127 130 136 138 101 104 77 71 106 127 142 162 155 113 65 122 170 159 177 186 147 69 32 109 121 119 61 36
108 151 135 164 123 121 118 101 80 71 70 96 88 85 106 115 98 103 124 110 114 110 107 100 135 147 108 123 131 145 166 175 174 130 85 174 216 198 243 164 161 110 85 145 130 26 30
98 118 130 146 129 128 119 105 85 84 82 102 84 82 87 82 84 82 105 114 114 106 103 109 96 117 141 125 115 101 102 134 135 141 122 124 170 216 220 183 88 125 182 136 42 75 54
65 124 169 149 139 132 119 104 92 92 75 96 93 76 67 76 64 70 73 63 79 85 96 130 129 124 139 140 187 148 115 90 101 82 126 157 142 121 166 169 131 99 117 106 100 84 49
Wind_Speed
43 44 44 45 47 48 49 50 52 53 54 55 56 57 58 58 58 58 58 57 56 53 52 52 51 45 31 26 23 29 17 3 3 7 11 16 24 27 32 31 32 28 29 33 35 32 26
44 45 46 46 47 49 50 52 53 55 56 57 58 59 60 60 60 60 60 59 57 56 54 51 48 40 30 32 30 23 12 5 12 12 17 18 23 25 29 31 29 28 30 31 31 30 25
46 46 47 48 49 51 52 53 55 56 57 58 60 61 62 63 62 61 61 60 59 58 58 54 42 28 27 27 26 14 12 17 17 20 21 27 29 26 30 31 28 26 33 33 29 24 24
49 49 49 50 52 53 54 55 56 58 59 60 61 62 63 64 64 63 61 61 61 61 56 42 29 30 32 22 22 20 24 33 25 20 25 34 28 32 29 25 31 33 35 42 31 18 26
50 51 52 53 55 56 56 57 58 59 60 61 62 63 64 65 66 64 62 61 58 48 37 29 31 31 32 35 27 28 14 28 22 23 25 28 25 29 30 32 40 41 48 46 40 14 23
53 53 54 55 55 56 57 58 59 60 62 62 64 65 66 66 65 63 63 56 36 35 31 31 32 33 35 26 34 25 18 20 28 28 24 25 28 30 35 36 51 51 45 43 36 28 23
55 53 54 55 56 56 58 58 59 61 63 64 65 67 68 68 63 61 54 38 39 37 34 24 27 30 34 41 31 25 23 16 20 22 16 22 25 27 37 36 41 41 46 45 39 31 29
57 56 55 55 56 57 58 59 61 63 64 65 66 68 69 69 60 55 42 35 36 36 48 41 27 36 45 36 34 31 22 19 19 22 16 24 24 21 29 32 39 44 49 42 50 41 32
57 56 57 57 57 58 59 61 63 65 66 67 67 68 69 69 56 41 38 36 45 35 44 50 32 29 24 19 27 28 22 22 23 21 20 21 23 22 20 32 38 36 43 42 38 39 35
57 56 56 57 58 59 60 61 64 65 66 67 67 67 67 68 39 46 39 48 49 35 47 41 37 35 19 14 30 25 24 24 28 23 24 34 35 28 29 28 21 32 35 38 39 39 47
57 57 57 57 57 58 59 61 62 63 64 66 66 65 63 50 48 44 46 54 43 35 52 39 34 32 23 14 24 22 25 28 27 26 27 32 30 29 26 27 20 27 27 34 36 40 44
56 56 56 56 56 56 57 58 59 62 63 65 65 64 63 46 47 44 52 49 36 43 50 38 35 31 27 29 27 26 22 26 28 30 34 30 31 27 27 23 25 22 28 37 39 42 51
57 56 53 52 54 54 55 56 58 60 62 64 65 65 59 42 45 47 49 38 45 51 41 42 38 36 33 30 31 28 24 20 28 38 39 41 37 35 28 25 26 27 30 40 42 41 47
54 53 51 52 52 52 53 55 56 58 60 63 66 64 42 42 44 45 37 39 55 48 47 45 42 41 40 34 37 32 32 32 29 31 36 44 51 34 27 29 30 28 27 30 48 43 43
52 50 48 48 50 51 52 53 54 56 59 61 60 45 41 37 34 31 35 52 53 48 46 50 48 46 44 39 39 35 44 43 29 23 33 39 49 42 35 35 27 32 33 33 35 42 47
50 49 48 48 47 49 51 51 53 55 57 58 47 44 38 37 31 33 42 55 51 44 47 47 51 46 48 46 42 36 39 39 38 26 33 40 56 43 40 33 36 28 20 34 37 37 40
50 48 47 47 46 48 49 50 51 53 57 50 42 42 37 37 32 37 53 53 51 48 47 48 50 50 47 46 46 46 44 44 36 34 35 34 43 47 41 42 36 32 32 34 32 36 40
51 48 47 45 46 46 46 45 47 50 53 39 41 46 38 34 41 42 50 47 48 50 48 51 49 51 51 48 49 48 49 46 39 38 33 36 39 54 49 42 41 39 36 29 40 44 40
54 51 48 46 44 43 41 42 43 43 40 38 40 41 38 35 51 51 49 50 52 50 51 52 56 52 49 54 56 52 49 46 44 42 36 33 46 56 60 53 46 43 40 37 38 41 41
55 50 48 45 42 42 40 39 39 40 38 33 38 41 42 39 43 46 49 55 56 49 54 58 61 58 61 62 56 59 55 49 51 47 50 37 46 43 56 56 46 52 49 41 42 54 50
55 51 46 43 39 37 37 37 35 39 39 34 38 42 40 45 48 46 47 50 53 58 51 50 53 57 65 69 69 70 64 61 51 49 44 42 62 53 53 53 51 57 55 44 49 48 52
52 52 48 42 38 37 35 33 33 35 36 36 38 40 40 42 42 43 46 53 58 58 53 56 58 61 54 64 64 67 63 59 56 52 47 48 63 56 63 52 53 62 58 53 55 52 57
50 48 47 43 37 34 35 32 31 32 32 38 39 38 40 45 44 44 47 48 49 49 50 47 56 60 62 58 66 69 63 65 61 57 53 51 56 57 66 49 49 70 58 54 58 52 50
47 47 45 41 38 35 31 29 27 28 31 33 35 36 44 50 47 48 45 46 48 48 53 53 54 56 55 67 71 66 67 70 71 68 55 59 60 57 62 49 75 60 51 52 56 53 40
45 46 45 42 38 34 30 27 25 24 26 32 30 35 42 52 49 49 48 50 51 52 52 53 49 50 62 61 66 74 75 74 78 76 68 57 55 63 68 68 69 55 49 44 51 74 51
46 47 44 42 37 33 29 25 22 21 23 28 30 30 36 45 54 46 48 50 55 55 56 55 51 52 50 55 61 77 82 75 75 68 64 60 60 64 64 75 85 62 56 44 41 72 47
57 48 45 42 38 33 28 23 20 18 19 25 28 28 33 45 44 40 48 49 46 47 54 52 54 53 49 57 67 74 81 68 82 80 69 66 68 82 80 80 74 57 45 35 60 63 49
60 53 48 44 39 34 28 23 19 16 16 23 27 27 31 40 43 39 38 42 44 46 54 51 51 50 55 61 62 66 72 71 78 76 79 78 77 83 80 87 99 52 45 57 57 50 51
65 59 51 46 40 34 29 23 19 13 12 21 28 29 30 35 39 38 44 46 41 41 46 48 48 50 49 56 59 62 69 67 73 90 67 84 70 83 78 88 60 52 61 56 51 52 49
Wind_Direction
316 316 317 317 315 316 316 318 317 314 313 313 312 311 310 307 302 296 293 289 285 282 286 296 299 300 312 310 313 300 332 86 352 347 5 356 351 347 331 343 354 360 3 4 10 20 37
314 314 314 316 317 316 317 316 316 314 313 311 310 311 308 305 302 297 291 288 285 282 280 282 286 303 310 290 301 311 346 312 290 303 311 326 342 352 337 338 342 358 1 5 14 23 45
307 310 312 312 312 313 314 315 314 315 312 310 310 308 306 305 300 296 292 286 284 284 280 284 306 334 317 300 312 340 327 308 298 294 301 305 313 333 339 336 348 355 343 351 5 20 22
302 303 305 308 308 309 310 311 312 312 312 310 309 307 306 303 300 295 290 285 283 283 286 302 329 323 302 331 316 307 301 291 295 296 298 298 308 310 322 344 339 332 333 326 347 10 2
300 301 302 303 303 305 307 308 309 309 309 310 310 308 306 306 302 297 291 285 287 304 313 317 317 314 306 301 301 296 303 298 306 301 297 312 310 306 311 313 312 317 312 317 322 353 348
296 298 299 300 301 303 304 305 307 308 309 309 310 309 308 307 303 301 295 296 328 326 323 314 312 313 302 306 293 301 309 305 299 304 294 300 304 299 300 303 299 306 310 316 316 329 324
292 295 297 298 299 301 303 304 305 306 307 308 309 309 309 308 303 304 315 319 314 315 321 327 323 305 311 299 301 297 298 309 309 306 296 308 298 296 295 298 309 308 307 306 308 322 324
288 291 294 296 298 300 301 303 303 304 304 305 308 308 308 309 302 311 329 324 321 319 305 305 309 298 288 303 300 289 301 289 294 292 305 306 300 313 316 312 304 305 306 305 301 306 315
284 287 290 292 295 298 299 300 301 302 302 303 305 306 307 307 302 318 333 332 316 329 310 298 306 302 298 308 299 291 293 293 283 287 292 293 313 330 325 315 307 306 309 307 306 315 314
282 284 287 290 293 295 297 299 300 302 303 303 303 304 306 303 309 307 309 311 312 319 307 308 305 303 292 302 300 285 293 290 289 279 291 296 304 304 306 314 320 307 311 314 312 305 301
280 281 283 287 291 294 295 298 300 302 302 302 302 303 306 309 299 299 299 305 311 315 296 308 304 312 309 271 319 292 287 288 280 285 290 292 305 305 297 302 318 322 326 315 314 307 304
279 279 281 285 288 292 295 298 300 302 302 301 300 301 303 302 300 297 298 302 304 294 286 303 307 303 300 285 286 315 286 293 291 286 292 292 306 311 311 311 314 329 329 319 316 311 299
275 276 278 283 286 290 293 297 299 301 301 301 299 296 297 302 293 300 296 294 283 278 294 293 292 299 295 290 281 287 293 265 272 277 277 288 288 295 306 310 316 315 320 316 313 310 304
271 273 276 280 284 288 291 294 298 300 301 300 297 293 301 297 297 297 290 281 273 282 279 290 290 294 284 288 287 277 283 279 276 281 288 277 281 281 294 292 300 305 308 311 308 313 318
267 270 273 278 281 285 290 293 297 300 300 300 298 301 299 299 301 299 278 270 275 277 284 284 286 281 281 280 284 283 274 277 275 266 276 286 283 291 290 287 291 302 299 310 311 314 311
264 267 270 275 278 283 287 292 295 298 300 300 298 297 294 297 299 289 273 272 275 281 284 285 277 282 275 276 276 278 279 291 273 266 276 285 282 290 290 290 294 295 312 303 306 314 314
259 263 267 271 275 280 284 288 293 296 297 297 294 286 291 295 292 280 269 271 276 280 280 280 277 277 278 276 276 274 282 288 293 278 276 280 282 286 287 279 279 290 291 301 310 308 312
254 258 262 267 272 277 282 286 290 296 298 296 286 277 289 290 276 278 270 274 279 278 279 276 279 277 275 277 276 275 277 278 306 284 275 274 285 277 277 288 288 285 289 289 291 298 308
249 253 257 263 267 272 277 281 288 296 304 292 282 280 289 285 270 269 276 275 275 276 275 275 271 275 277 273 272 275 277 287 291 289 282 272 277 274 276 279 283 284 286 291 295 300 301
243 247 251 256 261 265 269 276 285 292 299 293 282 277 279 279 276 273 272 272 273 280 277 273 271 275 272 269 270 270 275 283 292 292 283 279 273 269 271 276 280 275 279 284 287 287 295
240 242 245 249 254 258 263 271 281 286 290 286 281 278 279 273 271 273 273 275 273 271 277 279 276 273 269 266 266 267 273 279 286 292 288 277 270 273 278 278 275 275 276 276 279 290 290
236 236 238 241 245 251 257 267 277 283 288 280 276 277 279 277 278 275 274 274 272 274 277 273 271 276 278 268 268 267 273 274 275 284 286 286 273 275 275 277 276 273 273 273 278 287 289
231 230 229 233 239 243 251 260 272 281 290 279 278 281 277 275 274 274 272 275 276 280 280 280 279 277 273 273 277 275 276 272 273 277 282 282 280 274 271 277 278 269 269 275 279 285 288
223 224 222 226 232 236 243 253 265 278 287 286 282 280 274 271 272 271 276 277 277 281 278 281 284 278 279 283 280 277 275 272 268 269 274 276 279 277 271 274 266 276 282 280 279 282 284
214 216 219 220 223 227 233 245 258 273 285 286 288 282 276 272 274 275 277 278 281 283 282 283 287 289 290 284 276 272 270 270 266 264 265 269 275 271 267 266 273 281 279 283 279 273 284
208 202 205 208 212 218 225 237 250 265 280 289 289 294 287 278 274 280 279 281 279 281 282 282 288 294 293 282 274 266 264 267 266 266 263 261 266 264 268 265 265 278 279 285 290 275 296
226 204 199 203 206 212 217 225 239 254 272 288 294 299 293 282 285 287 281 281 286 286 283 286 288 285 290 278 271 266 265 271 263 261 261 258 259 257 259 264 270 278 281 282 273 282 300
224 211 204 199 197 204 209 218 230 242 264 287 295 301 296 289 290 291 291 288 289 288 282 287 287 284 280 272 272 270 269 268 266 266 262 259 257 257 259 260 260 276 276 272 286 296 292
231 212 193 186 193 197 207 212 217 220 253 287 293 296 302 299 299 299 292 289 288 288 287 287 282 283 281 275 273 273 270 272 269 262 270 259 263 262 258 260 274 277 274 277 285 289 291